User: anonymous   Login
Location: Stigler
(35.2540°N, 95.1230°W)
Time: 06:28:10
(UTC-06:00)
Language:

Cosmos 1805 - Orbit

View from above orbital plane
View from above orbital plane
View from above satellite
View from above satellite

Ground track
Ground track

The orbit data is extracted from the following two-line orbital elements,

1 17191U 86097A   16342.20398332  .00001268  00000-0  73092-4 0  9997
2 17191  82.4760 218.5098 0005556  31.8960 328.2606 15.11520689634647
Epoch (UTC): 07 December 2016 04:53:44
Eccentricity: 0.0005556
inclination: 82.4760°
perigee height: 528 km
apogee height: 535 km
right ascension of ascending node: 218.5098°
argument of perigee: 31.8960°
revolutions per day: 15.11520689
mean anomaly at epoch: 328.2606°
orbit number at epoch: 63464

The dashed part of the orbit path shows where the satellite is in the earth's shadow,  

DLR